COSMOS 1275 DEB, 13800

Orbit data source: Space-Track

COSMOS 1275 DEB, 13800 is space debris in LEO originally from a launch on Thu, 04 Jun 1981 UTC launched from the Plesetsk Missile And Space Complex (PKMTR). Debris objects in space refer to the collection of defunct objects orbiting the Earth. Examples of debris include non-operational satellites, rocket bodies, and fragments generated from explosions, collisions, or faulty payload assembly.

Loading next visibility...
Identifier
13800, 1981-053GU
Orbit
LEO
Country
Flag of CISCIS
Related business
Manufacturer
Unknown
Mission
Spacecraft
Bus & Motor
Unknown
Mass
Unknown
Launch date (UTC)
1981-06-04 (45 years ago)
Launch vehicle
Unknown
Launch site
Plesetsk Missile And Space Complex (PKMTR)
Object type
Payload
Rocket body
Debris
Shape & HBR
Unknown shape, 0.1 m
Radar Cross Section
Small (<0.1 m²)

Expand to show TLE details & history
Last TLE update: 8 hours ago

TLE from 8 hours ago
0 COSMOS 1275 DEB
1 13800U 81053GU  26063.49832425  .00001510  00000-0  16379-2 0  9998
2 13800  83.2201 237.9397 0160107 291.8817 129.9540 13.67077967139760
Epoch: 2026-03-04T11:57Z
TLE epoch observation values (Epoch: 2026-03-04T11:57:35.215Z)
Latitude
62.52879°
Longitude
-90.56976°
Altitude
1,097.889 km
Speed
7.271 km/s
True Right ascension
16h 44m 21s
True Declination
62° 23' 39"
Sunlit
Object was in daylight at epoch
Visualization orbit readout
Latitude
Unknown
Longitude
Unknown
Altitude
Unknown
Speed
Unknown
Apparent Right ascension
Unknown
Apparent Declination
Unknown
Sunlit
N/A
Visualization observer readout
Local Sidereal Time
00:00:18
Azimuth
Unknown
Elevation
Unknown
Doppler factor
Unknown
Orbital elements
Apogee altitude
1,125.473 km
Perigee altitude
888.984 km
Semi-major axis
7,385.366 km
Eccentricity
0.01601
Inclination
83.2201°
RAAN
237.9397°
Arg. of periapsis
291.8817°
True anomaly
131.34241°
Mean anomaly
129.954°
Eccentric anomaly
130.64999°
Mean motion
3.41968 °/min
Orbital period
105.27 mins
BSTAR
0.0016379
Loading maneuver chart data...
Computing Atmospheric mass density...

Documentation

Showing up to 5 results
|